Tracking 20376 objects as of 20-Feb-2020
HD Live streaming from Space Station
objects crossing your sky now
Track the group of recently launched Starlink satellites

EKRAN 4

Track EKRAN 4 now!
EKRAN 4 is classified as:


NORAD ID: 11561
Int'l Code: 1979-087A
Perigee: 35,758.4 km
Apogee: 35,838.6 km
Inclination: 11.0 °
Period: 1,436.3 minutes
Semi major axis: 42169 km
RCS: 0.1995 m2 (medium)
Launch date: October 3, 1979
Source: Commonwealth of Independent States (former USSR) (CIS)
Launch site: TYURATAM MISSILE AND SPACE COMPLEX (TTMTR)
aabbcc
Your satellite tracking list
Your tracking list is empty




NASA's NSSDC Master Catalog

Two Line Element Set (TLE):
1 11561U 79087A   20050.70005087 -.00000279 +00000-0 +00000-0 0  9998
2 11561 011.0332 311.2085 0009513 069.9884 115.7832 01.00254815024210
Source of the keplerian elements: AFSPC